GEFSMW_500_meanwind_258.txt.gz
Wind_Speed
52 52 51 50 49 49 48 47 47 47 47 46 45 44 42 41 40 39 38 38 37 36 35 34 33 32 32 31 30 30 29 28 28 27 27 27 27 27 26 26 26 26 26
53 53 52 51 51 50 49 48 48 48 47 47 47 46 45 43 41 40 39 38 38 38 37 36 35 34 34 33 32 32 31 30 30 30 29 29 29 29 29 29 29 29 29
53 53 52 52 51 50 49 49 49 48 48 47 47 47 46 44 43 41 41 41 40 39 38 38 37 37 36 36 35 34 33 32 32 32 32 32 31 31 31 31 31 31 32
53 53 53 53 52 51 50 50 51 50 50 49 48 48 48 46 44 43 42 41 41 40 40 39 38 39 38 37 36 36 35 35 34 34 34 34 33 33 33 33 33 34 34
53 53 53 53 53 53 52 51 52 51 51 50 50 49 48 48 47 46 43 43 42 42 41 40 39 38 38 38 38 38 37 37 37 36 36 36 35 35 35 34 35 35 36
52 52 53 54 54 53 52 52 53 51 51 50 51 51 50 49 48 47 46 45 43 42 42 41 40 39 39 39 39 39 39 38 38 38 38 38 37 37 37 37 37 37 37
50 51 52 54 54 53 52 52 53 52 51 51 51 51 51 50 49 48 47 46 46 45 44 42 41 40 40 40 40 40 40 40 40 40 39 39 39 39 39 38 38 38 38
47 50 52 52 53 53 52 51 52 52 52 52 52 52 51 50 50 49 48 47 46 46 45 43 42 42 42 41 41 41 41 41 41 41 41 40 40 40 39 38 38 38 38
43 46 49 51 51 51 51 51 51 51 51 52 52 53 52 51 50 49 49 48 47 46 46 45 44 44 43 43 42 42 42 42 42 42 42 41 41 41 40 39 39 40 40
41 43 46 48 50 50 51 51 51 50 50 51 52 52 51 51 50 50 49 48 48 48 47 46 45 45 45 44 44 43 43 43 43 43 43 42 42 43 43 42 42 42 41
40 41 43 46 48 49 50 51 50 50 50 51 51 51 51 51 51 50 50 50 49 48 48 47 46 46 46 45 45 45 45 44 44 44 44 44 43 44 44 43 43 43 42
39 40 41 43 45 47 48 49 50 50 51 51 51 51 51 51 50 50 49 50 50 49 49 49 48 47 47 47 46 46 46 46 45 45 45 45 45 44 44 44 44 44 43
39 39 40 41 43 45 46 47 48 49 50 51 51 51 51 50 50 50 49 48 48 48 48 48 48 48 48 48 48 47 47 46 46 45 45 45 45 44 44 44 45 45 44
38 40 39 40 41 43 45 47 48 48 49 50 51 51 50 50 50 50 51 50 50 49 49 49 49 49 48 48 48 47 47 47 47 46 46 45 45 45 45 45 45 45 45
37 38 39 39 40 42 44 46 47 48 48 49 50 50 50 50 49 50 50 50 50 50 49 50 49 48 48 48 49 48 48 47 46 46 47 46 46 45 45 45 46 46 46
35 37 38 39 40 41 43 44 45 47 48 48 48 50 50 50 50 50 51 51 51 51 50 49 50 50 49 49 49 48 48 47 47 47 47 46 47 46 47 47 46 47 47
35 37 38 39 40 41 42 43 43 44 46 46 47 48 49 48 49 49 50 51 52 52 51 51 50 49 49 49 48 48 48 47 47 47 48 47 46 47 46 46 47 47 47
34 35 37 38 38 39 41 42 43 44 45 45 45 46 48 48 47 48 49 50 51 51 51 51 50 50 49 49 47 48 47 47 48 48 48 48 48 47 47 47 47 48 48
33 34 36 37 37 38 39 41 43 44 45 45 45 45 45 46 47 48 48 49 50 50 50 50 49 49 50 49 49 49 48 48 48 48 48 49 49 48 48 48 47 48 48
33 34 35 35 37 38 39 40 42 43 44 45 45 45 44 45 46 47 46 47 49 49 49 49 49 49 49 49 48 48 49 49 49 49 49 50 49 50 49 49 48 48 48
32 33 34 35 36 37 38 39 40 42 43 44 44 45 45 44 45 46 46 46 47 48 48 49 50 49 49 49 49 49 48 48 49 49 49 49 48 48 48 48 48 48 48
29 31 33 34 35 36 38 38 39 41 41 42 43 44 45 45 44 44 44 45 45 46 47 48 49 49 50 49 50 50 49 49 49 48 48 48 47 46 47 47 47 48 48
28 29 31 33 35 36 37 37 38 40 41 41 42 42 43 44 44 44 44 44 44 45 46 47 48 48 48 49 49 49 49 49 49 49 49 48 48 47 47 48 47 47 47
27 28 30 32 33 35 36 37 38 39 40 40 41 42 43 44 44 45 46 46 45 45 45 46 47 47 47 47 47 47 48 49 49 48 48 48 48 47 47 47 47 46 46
26 28 30 31 32 33 35 36 37 38 39 39 40 41 42 43 43 44 45 45 45 45 45 45 46 46 45 45 45 45 45 46 47 47 48 47 47 47 47 46 47 47 47
26 27 28 29 31 32 33 34 35 36 37 38 39 40 41 42 42 42 43 43 43 43 44 44 44 44 44 45 45 44 44 45 46 46 47 47 46 46 46 46 47 47 47

GEFSMW_500_meanwind_264.txt.gz
Wind_Speed
51 51 52 52 51 50 48 49 48 48 48 47 46 44 43 41 40 40 39 38 37 36 36 35 34 32 31 30 29 29 28 27 27 26 25 25 24 24 24 24 23 23 23
51 52 52 52 52 51 50 50 49 49 49 48 47 46 44 43 42 41 40 39 38 38 38 37 36 35 33 32 32 31 30 29 29 28 28 27 26 26 26 26 26 25 26
49 51 51 52 53 53 51 51 50 50 50 49 48 48 46 45 44 41 41 41 41 40 40 39 38 37 36 35 34 33 32 31 30 30 29 28 28 27 27 27 27 27 27
48 50 51 52 53 53 52 52 51 51 51 51 50 49 47 46 45 44 42 42 43 43 42 41 40 39 38 37 36 35 34 33 32 32 31 30 30 29 29 29 29 29 29
48 49 51 51 52 53 53 53 52 52 52 52 51 50 48 48 47 46 44 43 43 43 42 41 41 41 40 39 37 37 36 35 34 33 33 32 32 32 32 31 31 31 31
46 48 50 50 51 52 53 53 53 52 52 52 52 51 50 49 48 47 47 45 45 44 44 43 42 41 40 40 40 39 39 38 37 36 35 34 34 33 33 34 34 34 33
43 45 48 49 50 51 52 53 53 53 52 52 52 52 51 50 49 48 48 47 47 46 45 44 44 42 41 40 40 40 40 39 38 37 37 36 36 36 36 36 36 36 35
42 44 46 48 49 50 51 53 53 53 53 52 52 53 52 51 50 50 49 48 48 48 47 46 45 44 42 42 41 41 40 40 39 39 38 38 38 38 38 38 38 38 37
41 43 45 46 47 47 48 51 52 52 52 53 52 52 52 52 52 52 51 49 48 49 49 48 47 46 45 43 42 42 41 41 41 40 40 39 39 40 40 39 39 39 39
40 41 43 44 46 47 47 49 52 52 52 51 52 52 52 52 52 53 52 51 50 49 49 49 48 47 46 45 44 43 42 42 42 42 42 42 42 41 41 41 40 40 40
37 39 40 42 44 46 47 48 49 51 52 52 53 52 51 52 53 53 52 51 49 49 50 49 48 48 47 46 46 45 44 43 44 44 44 44 43 43 42 42 42 42 42
35 37 39 40 42 45 46 47 48 48 49 49 50 52 51 51 52 53 53 52 51 50 50 50 50 49 49 48 47 46 45 45 45 45 45 44 44 43 43 42 42 43 42
34 36 38 39 40 42 44 45 47 48 49 50 49 50 50 50 51 51 52 53 52 51 50 51 51 50 50 49 48 47 46 46 46 46 46 45 45 44 44 43 43 43 43
33 34 35 37 38 40 42 43 44 46 47 48 49 51 52 51 50 50 50 52 52 51 50 50 51 51 50 49 48 48 48 48 47 47 47 46 45 45 45 44 44 44 44
32 34 34 35 37 39 40 42 43 45 46 47 49 50 51 52 51 50 50 51 51 51 50 49 50 51 51 51 50 49 48 48 48 47 46 46 46 45 45 45 45 45 45
30 32 34 35 36 38 40 41 42 43 44 45 47 48 49 50 51 51 51 51 51 51 51 50 49 50 50 50 50 49 49 49 48 48 47 47 46 46 45 45 45 45 45
31 32 34 35 36 38 39 40 41 42 42 42 44 46 47 49 50 51 51 52 52 52 52 51 50 50 51 51 51 50 50 49 49 48 48 48 47 47 47 46 46 46 46
29 32 34 35 36 37 39 39 40 41 41 42 43 44 46 48 49 50 52 52 53 53 53 53 52 51 51 51 51 50 50 50 50 49 49 49 49 48 48 48 47 47 47
28 29 32 35 35 36 38 39 39 39 40 41 42 43 45 47 48 48 49 50 50 51 51 52 53 52 52 52 51 51 51 51 50 50 50 50 49 49 49 48 48 48 48
28 29 30 33 34 35 37 38 38 38 39 40 41 42 43 46 47 48 48 49 50 50 50 50 51 51 52 52 52 52 52 52 51 51 51 51 50 50 49 49 49 49 49
28 29 29 30 32 34 35 36 38 39 39 40 40 41 42 44 46 47 47 47 48 49 49 50 51 51 50 50 51 51 51 51 52 52 51 51 51 50 50 50 49 50 50
28 29 29 29 30 32 33 35 36 38 39 39 39 40 40 42 44 46 46 46 47 48 49 49 49 50 49 49 50 51 51 51 51 50 50 50 51 51 50 50 50 50 50
29 29 29 29 29 30 32 33 35 36 37 38 38 39 40 41 42 43 44 45 46 47 48 48 48 48 49 50 49 50 50 49 50 50 49 50 51 51 51 51 50 50 50
31 30 30 30 30 31 32 33 34 35 36 37 38 38 39 40 41 43 43 44 45 46 47 47 47 48 48 49 49 48 48 49 49 48 49 49 49 50 50 50 50 49 49
31 32 31 31 31 31 32 32 33 34 34 34 35 36 38 39 40 41 42 43 44 45 45 46 47 47 47 47 47 46 47 47 48 48 48 48 48 48 49 49 50 50 49
31 32 32 32 32 32 33 33 33 33 34 35 35 36 36 37 38 39 40 42 43 44 45 45 45 45 45 45 45 45 45 46 46 47 48 47 47 47 48 47 48 47 47

GEFSMW_500_meanwind_270.txt.gz
Wind_Speed
48 49 50 51 50 50 48 47 48 48 48 47 46 44 43 41 41 41 40 39 37 36 36 36 35 34 33 33 32 31 30 29 28 27 26 25 25 23 23 23 22 21 21
49 49 49 51 51 51 51 49 48 48 48 48 47 45 45 43 42 41 41 39 38 37 37 36 36 35 35 34 33 32 31 31 30 29 28 27 26 25 24 24 24 23 23
46 49 49 51 51 51 51 51 50 49 48 49 49 48 46 45 44 43 42 40 39 38 37 36 36 36 36 36 35 34 33 32 31 30 29 28 27 26 26 26 25 25 25
44 46 49 51 51 51 51 51 51 50 49 49 49 48 48 46 46 46 45 42 41 40 39 37 37 37 38 37 37 36 35 34 33 32 31 30 29 29 28 28 28 28 27
42 43 46 49 51 51 51 52 51 51 50 49 49 48 48 48 47 48 48 46 44 43 42 40 39 39 39 39 39 38 37 36 35 34 33 33 32 31 30 30 30 30 30
41 43 44 48 49 50 51 52 51 51 50 49 49 49 48 48 48 49 49 48 45 44 43 44 43 41 41 40 40 40 39 38 38 37 36 35 34 33 33 32 32 32 31
38 40 42 44 47 49 51 52 52 51 51 51 50 49 49 48 48 49 50 49 47 46 45 45 45 44 43 42 42 41 41 40 40 39 38 37 36 36 35 35 34 34 34
37 39 40 42 44 46 49 50 52 52 51 51 51 51 50 50 50 51 51 51 49 47 47 45 45 45 45 44 43 43 43 43 42 41 40 40 39 38 37 37 37 37 36
36 37 39 41 42 44 46 48 49 51 51 51 52 51 52 52 51 52 52 51 49 48 48 47 46 47 47 46 46 45 45 45 44 43 42 41 41 40 39 39 39 39 39
34 36 37 39 41 42 43 44 46 48 50 51 53 52 52 52 52 52 53 52 49 49 50 49 48 48 48 48 47 47 47 47 46 45 45 44 44 43 42 42 41 41 41
34 36 37 38 40 40 41 42 44 46 48 50 52 52 52 52 51 53 53 53 51 49 49 50 49 47 47 48 48 48 48 48 47 46 46 44 44 44 44 44 43 43 43
32 34 36 38 39 39 41 41 43 43 45 48 51 53 53 52 51 52 53 53 53 51 49 49 49 49 48 48 47 47 48 47 47 47 46 45 45 45 45 45 44 44 44
30 32 33 36 38 39 40 41 42 44 44 46 48 50 52 52 52 52 53 53 53 52 51 49 49 49 49 49 48 48 48 48 47 47 47 47 47 47 46 46 46 46 46
29 30 32 35 36 38 40 40 41 42 44 45 46 48 51 52 52 53 54 53 53 52 52 52 51 50 50 50 50 49 48 48 48 48 48 48 48 48 48 48 49 48 47
27 29 31 33 34 36 38 38 40 41 43 44 46 47 49 51 51 52 53 53 53 53 52 52 52 52 52 51 50 50 49 49 49 49 49 49 49 48 49 49 49 48 47
26 28 30 32 34 35 36 37 38 40 41 43 44 45 47 49 50 52 53 53 54 54 53 52 52 52 52 52 51 51 51 50 50 49 48 48 49 49 49 48 48 48 48
26 28 30 31 33 35 36 36 37 38 40 42 43 45 46 47 49 50 52 53 54 54 54 54 53 53 53 53 53 52 51 51 50 50 50 50 49 48 48 48 48 48 48
26 28 30 31 32 34 36 37 37 38 39 40 42 44 44 45 47 49 50 52 54 54 54 54 54 54 54 53 53 52 52 52 52 52 52 51 49 48 48 48 48 48 48
25 27 29 30 31 32 34 35 35 37 38 38 40 43 44 44 45 47 50 52 53 53 52 52 52 52 52 52 52 52 53 53 53 53 52 52 51 50 49 48 48 48 48
24 26 28 29 30 31 33 34 34 35 37 37 38 40 43 43 44 45 47 49 51 52 52 50 50 50 50 50 51 52 52 52 52 52 52 52 51 51 51 50 49 49 49
25 26 27 29 29 30 32 33 34 35 36 37 37 37 39 41 41 42 44 46 48 49 50 51 50 49 49 49 50 50 50 51 52 52 51 51 51 51 51 50 50 51 50
26 26 28 29 30 30 31 31 32 33 35 35 36 36 37 38 39 40 41 42 45 47 48 49 49 49 49 49 49 50 50 51 51 51 51 51 50 51 51 50 51 51 51
27 28 29 30 31 31 31 32 32 33 34 35 35 35 36 36 37 39 39 40 41 43 45 47 48 49 49 49 50 50 51 51 51 51 51 51 51 51 51 51 51 51 52
27 28 29 30 30 31 32 32 33 33 34 35 36 35 36 37 37 37 38 39 40 42 43 44 46 47 48 48 48 50 51 51 51 51 51 51 51 51 51 51 51 51 52
28 28 29 30 31 31 31 32 33 33 34 34 35 35 35 36 36 37 37 37 38 39 40 42 43 44 45 47 49 50 50 51 51 51 51 51 51 51 51 51 51 50 50
29 29 29 30 31 31 31 32 32 33 34 34 34 34 34 35 36 36 36 37 38 38 39 40 41 42 43 44 45 47 48 48 49 50 50 50 50 50 50 50 50 50 50

GEFSMW_500_meanwind_276.txt.gz
Wind_Speed
42 43 45 47 49 51 52 51 50 50 48 47 47 46 45 44 43 41 40 39 38 38 37 37 37 36 36 35 35 33 32 31 30 29 28 27 26 26 25 24 23 22 22
43 44 45 47 49 51 53 52 51 50 49 48 47 46 46 46 44 43 42 41 39 39 38 38 38 38 38 36 36 35 34 33 32 30 29 29 28 27 26 25 25 24 23
42 43 44 46 48 51 51 52 51 50 50 49 48 47 46 46 46 45 44 42 41 40 39 40 39 39 38 37 37 36 35 34 33 32 31 30 30 29 28 27 27 26 25
42 43 44 46 48 50 51 51 51 50 50 50 49 47 46 46 46 46 45 43 42 40 40 41 40 41 40 39 38 37 36 35 34 33 33 32 31 31 30 29 28 28 27
40 42 44 45 47 49 50 51 51 51 50 50 49 48 47 46 47 47 47 45 44 42 41 41 40 40 41 40 39 38 37 36 35 34 34 34 33 32 31 30 29 29 29
37 40 42 43 46 48 50 51 51 51 51 50 50 49 47 47 48 47 47 47 46 44 43 43 41 41 42 40 40 39 38 37 37 36 36 35 35 33 33 32 31 31 31
35 36 38 40 44 46 49 52 53 52 51 51 51 50 49 48 48 48 47 47 47 47 46 45 44 43 43 43 42 41 40 38 38 38 37 37 36 35 35 35 34 34 34
34 34 36 39 40 42 46 50 52 52 52 52 52 51 50 50 49 49 49 48 48 47 46 46 46 45 45 45 44 43 43 42 41 40 39 39 38 37 37 37 36 36 36
32 34 36 37 39 40 43 46 49 50 51 52 53 53 51 50 50 51 50 49 49 48 48 48 47 47 47 46 44 44 43 44 43 42 41 41 40 39 39 39 38 38 37
33 33 35 36 38 40 41 43 46 49 50 51 52 53 52 51 51 52 52 51 50 50 49 49 49 48 48 48 46 43 43 44 44 43 43 43 42 42 41 41 41 40 40
31 32 34 35 37 38 40 42 44 46 48 49 50 51 52 52 52 52 52 52 52 52 51 49 49 50 50 49 47 46 45 45 45 46 45 44 43 44 44 44 43 43 42
30 31 32 34 35 37 39 41 42 44 46 47 49 50 51 52 52 52 52 52 53 53 53 51 51 52 51 48 47 47 47 47 46 46 45 45 45 45 45 45 45 45 45
30 31 32 34 35 37 38 39 40 42 44 45 46 47 49 51 52 52 53 53 53 52 53 53 53 54 53 50 49 48 48 48 48 47 46 45 46 47 46 47 47 47 47
30 31 32 33 34 36 38 38 38 40 42 43 45 45 46 48 51 52 53 53 53 53 52 53 52 54 53 53 52 51 51 51 50 50 49 48 47 47 48 49 49 49 48
31 31 32 33 34 35 38 39 39 40 41 42 45 46 45 45 47 50 51 53 55 55 53 53 54 54 54 54 53 53 52 52 52 52 52 51 51 50 50 50 50 51 50
30 31 32 33 34 36 38 38 39 40 41 41 42 44 46 46 46 46 48 51 53 54 54 54 55 56 55 54 54 54 53 52 52 52 52 52 53 52 51 51 51 51 51
29 29 31 32 34 36 37 38 38 39 40 40 41 42 45 46 46 45 47 49 51 52 53 54 54 55 54 53 54 55 54 53 53 53 52 52 53 53 52 52 51 51 52
28 29 29 31 33 35 36 37 38 38 39 40 40 41 43 44 44 45 45 46 48 50 53 55 55 54 53 52 53 53 53 53 53 53 53 53 53 53 53 53 52 52 52
29 29 29 30 32 34 36 36 37 39 39 39 39 40 42 42 42 42 43 45 46 48 51 53 54 53 53 53 52 52 53 53 54 54 54 54 53 52 53 53 53 54 53
26 27 28 29 30 32 34 36 37 37 38 38 37 38 40 42 41 41 42 43 44 46 48 52 53 52 52 53 52 53 53 54 55 55 55 54 52 52 52 53 53 54 53
25 25 26 27 28 30 32 34 34 35 36 36 37 38 39 40 41 41 41 42 42 44 47 49 50 52 52 53 53 53 53 53 53 54 54 54 53 53 53 53 53 53 53
25 26 26 26 26 28 30 31 33 33 35 36 36 37 38 39 41 40 40 40 41 42 44 46 47 49 49 50 51 52 52 52 53 53 53 53 54 54 53 53 54 54 53
26 26 26 27 27 29 30 31 31 32 34 35 35 36 37 38 39 40 40 40 40 41 42 43 44 47 48 48 49 49 50 50 50 51 52 53 54 54 53 53 53 53 53
27 27 27 27 27 28 29 30 31 32 32 33 34 35 36 36 37 38 38 39 40 40 41 42 43 44 46 46 47 48 49 49 49 50 50 50 50 51 50 51 51 52 52
28 28 28 28 28 28 28 29 30 31 31 32 33 34 35 35 36 37 38 38 38 38 39 40 41 42 43 44 46 47 47 47 47 47 48 48 48 49 49 49 49 50 51
27 27 27 28 27 27 28 28 30 30 31 32 33 34 35 36 36 36 36 36 37 37 37 37 38 40 40 41 42 43 45 45 45 46 46 47 48 48 48 48 49 49 50